• MPC Preparation (Info)

  • MPEC 2010-L66 : 2010 JL33

    The following Minor Planet Electronic Circular may be linked-to from your own Web pages, but must not otherwise be redistributed electronically.

    A form allowing access to any MPEC is at the bottom of this page.


    Read MPEC 2010-L65 Read MPEC 2010-L67


    M.P.E.C. 2010-L66                                Issued 2010 June 13, 23:41 UT
    
         The Minor Planet Electronic Circulars contain information on unusual
             minor planets and routine data on comets.  They are published
       on behalf of Commission 20 of the International Astronomical Union by the
              Minor Planet Center, Smithsonian Astrophysical Observatory,
                              Cambridge, MA 02138, U.S.A.
    
                 Prepared using the Tamkin Foundation Computer Network
    
                                  MPC@CFA.HARVARD.EDU
           URL https://www.minorplanetcenter.org/iau/mpc.html  ISSN 1523-6714
    
                                       2010 JL33
    
                               Revision to MPEC 2010-J42
    
    Additional Observations:
         K10J33L  C1997 06 04.39551 15 52 43.60 -22 56 54.8          18.1 R EL066566
         K10J33L  C1997 06 04.40396 15 52 42.31 -22 56 53.9          18.3 R EL066566
         K10J33L  C1997 06 04.41248 15 52 41.09 -22 56 53.0          18.3 R EL066566
         K10J33L  C1997 12 29.57325 08 58 10.94 +27 19 32.3          18.4 R EL066566
         K10J33L  C1997 12 29.58332 08 58 09.40 +27 19 39.8          18.6 R EL066566
         K10J33L  C1997 12 29.59284 08 58 07.96 +27 19 46.8          18.7 R EL066566
         K10J33L  C1998 01 26.31073 07 54 49.25 +30 30 42.6          19.1 R EL066566
         K10J33L  C1998 01 26.32082 07 54 48.16 +30 30 43.3          19.1 R EL066566
         K10J33L  C1998 01 26.33058 07 54 47.08 +30 30 44.8          19.2 R EL066566
    
    Observer details:
    566 Haleakala-NEAT/GEODSS.  Observers R. Bambery, E. Helin, S. Pravdo,
        M. Hicks, K. Lawrence, P. Kervin.  Measurer R. Matson.  1.0-m f/2.2
        Ritchey-Chretien + CCD.
    
    Orbital elements:
    2010 JL33                                           PHA, Earth MOID = 0.0337 AU
    Epoch 2010 July 23.0 TT = JDT 2455400.5                 MPC
    M 337.76507              (2000.0)            P               Q
    n   0.22756491     Peri.  308.49285     +0.99659820     -0.03435637
    a   2.6570467      Node    53.60068     +0.06434139     +0.89235661
    e   0.7423794      Incl.    5.34017     -0.05149970     +0.45002147
    P   4.33           H   17.7           G   0.15           U   1
    Residuals in seconds of arc
    970604 566  0.2-  0.4-    100507 G96  0.1+  0.3+    100516 291  0.1-  0.4+
    970604 566  0.5-  0.4-    100507 926  0.4+  0.3+    100516 291  0.2+  0.4+
    970604 566  0.3+  0.4-    100507 G96  0.1+  0.1+    100516 291  0.0   0.2+
    971229 566  0.3+  0.2-    100507 926  0.2+  0.6-    100517 691  1.1+  0.3-
    971229 566  0.1+  0.2-    100507 926  0.0   0.5-    100517 691  0.3+  0.0
    971229 566  0.1+  0.2-    100508 474  0.0   0.1-    100517 691  0.1+  0.3-
    980126 566  0.3-  0.2+    100508 474  0.2+  0.3-    100518 695  0.2+  0.0
    980126 566  0.1-  0.1-    100508 474  0.1+  0.3-    100518 695  0.1+  0.3+
    980126 566  0.3-  0.4+    100508 474  1.0+  0.2-    100518 695  0.3+  0.1+
    100506 G96  0.5+  0.1-    100508 474  0.3+  0.4-    100521 691  0.3-  0.2-
    100506 G96  0.3+  0.1-    100509 291  0.1+  0.3-    100521 691  0.0   0.1+
    100506 G96  0.2-  0.0     100509 291  0.1-  0.2-    100521 691  0.0   0.1+
    100506 G96  0.2+  0.1-    100509 291  0.1+  0.0     100523 448  1.8-  0.1+
    100506 G96  1.9+  0.2+    100510 H01  0.1-  0.0     100523 448  0.5-  0.3-
    100506 G96  0.1-  0.1+    100510 H01  0.2+  0.1-    100523 448  0.9-  0.1-
    100506 G96  0.1+  0.3+    100511 291  0.2+  0.5+    100602 H21  0.6+  0.6+
    100506 G96  0.6+  0.2+    100511 291  0.1-  0.3+    100602 H21  0.1+  0.3+
    100506 J04  0.8+  1.5-    100511 291  0.4-  0.3-    100602 H21  0.2+  0.4+
    100506 J04  0.2-  0.7-    100512 291  1.4-  1.5-    100603 291  0.3+  0.0
    100506 J04  0.2+  0.1-    100512 291  0.4+  0.7+    100603 291  0.1+  0.2+
    100507 291  0.1-  0.1+    100513 291  0.2-  0.1+    100611 G96  0.0   0.1+
    100507 G96  0.5+  0.1+    100513 291  0.3-  0.2+    100611 G96  0.2-  0.1+
    100507 291  0.2+  0.1+    100513 291  0.2-  0.2+    100611 G96  0.1+  0.2+
    100507 G96  0.1-  0.0     100515 291  0.3-  0.1+    100611 G96  0.1-  0.5+
    100507 291  0.1-  0.0     100515 291  0.5-  0.2+
    
    Ephemeris:
    2010 JL33                a,e,i = 2.66, 0.74, 5                   q = 0.6845
    Date    TT    R. A. (2000) Decl.     Delta      r     Elong.  Phase     V
    2010 06 13    14 21.16   -14 49.6    1.181    2.039   136.1    20.2    20.6
    2010 06 23    14 09.11   -14 12.3    1.183    1.940   123.6    25.9    20.7
    2010 07 03    14 01.07   -13 52.8    1.196    1.839   112.1    30.8    20.7
    2010 07 13    13 57.25   -13 53.9    1.213    1.734   101.7    35.0    20.8
    2010 07 23    13 57.59   -14 16.3    1.228    1.627    92.4    38.6    20.7
    2010 08 02    14 01.79   -14 58.7    1.236    1.516    84.1    41.7    20.7
    2010 08 12    14 09.62   -15 59.6    1.232    1.403    76.6    44.7    20.6
    2010 08 22    14 20.91   -17 17.0    1.214    1.287    70.0    47.6    20.5
    2010 09 01    14 35.57   -18 48.6    1.178    1.170    64.2    50.9    20.3
    2010 09 11    14 53.64   -20 31.5    1.122    1.054    59.1    55.0    20.1
    2010 09 21    15 15.18   -22 21.9    1.044    0.942    54.7    60.5    19.8
    2010 10 01    15 40.12   -24 13.4    0.943    0.838    51.0    68.1    19.6
    
    2010 12 06    19 21.53   +07 01.4    0.0570   0.948    47.6   129.9    17.1
    2010 12 08    20 17.48   +26 37.5    0.0449   0.970    69.0   108.5    15.0
    2010 12 10    22 10.82   +49 07.5    0.0439   0.992    98.6    78.9    13.7
    2010 12 12    00 53.89   +57 44.5    0.0547   1.015   122.4    55.0    13.4
    2010 12 14    02 42.83   +55 12.7    0.0722   1.038   136.3    40.9    13.7
    2010 12 16    03 36.45   +51 14.2    0.0928   1.061   144.2    32.9    14.0
    2010 12 18    04 05.34   +48 01.3    0.115    1.084   148.8    28.0    14.4
    2010 12 20    04 22.98   +45 35.1    0.138    1.107   151.6    25.0    14.8
    
    2010 12 30    04 59.25   +39 13.1    0.261    1.224   154.2    20.5    16.2
    2011 01 09    05 14.11   +36 21.6    0.397    1.340   149.5    21.8    17.4
    2011 01 19    05 25.43   +34 36.5    0.544    1.455   142.8    24.1    18.3
    2011 01 29    05 36.42   +33 21.6    0.704    1.567   135.5    26.1    19.1
    2011 02 08    05 47.97   +32 23.3    0.877    1.676   128.2    27.6    19.8
    2011 02 18    06 00.30   +31 34.7    1.061    1.783   120.9    28.4    20.3
    
    Carl W. Hergenrother         (C) Copyright 2010 MPC           M.P.E.C. 2010-L66
    

    Read MPEC 2010-L65 Read MPEC 2010-L67


    MPEC number:

    Enter an MPEC number in one of the following forms:

    • 1997-B01 (the full form)
    • J97B01 (the packed version of the full form)
    • B01 (the abbreviated form)